Tracking 29892 objects as of 21-Nov-2024
HD Live streaming from Space Station
objects crossing your sky now

STARLINK-5524

Track STARLINK-5524 now!
10-day predictions
STARLINK-5524 is classified as:


NORAD ID: 56474
Int'l Code: 2023-064AC
Perigee: 577.3 km
Apogee: 581.0 km
Inclination: 70.0 °
Period: 96.1 minutes
Semi major axis: 6950 km
RCS: Unknown
Launch date: May 10, 2023
Source: United States (US)
Launch site: AIR FORCE WESTERN TEST RANGE (AFWTR)
Your satellite tracking list
Your tracking list is empty




NASA's NSSDC Master Catalog

Two Line Element Set (TLE):
1 56474U 23064AC  24324.95056277 -.00001637  00000-0 -12941-3 0  9996
2 56474  70.0000 241.6126 0002686 273.0025  87.0826 14.98334114 84627
Source of the keplerian elements: AFSPC